Date,Installs,Update checks
2016-12-18,7,1
2016-12-19,22,11
2016-12-20,32,22
2016-12-21,39,23
2016-12-22,37,34
2016-12-23,19,39
2016-12-24,11,39
2016-12-25,1,34
2016-12-26,2,29
2016-12-27,3,32
2016-12-28,4,31
2016-12-29,3,30
2016-12-30,4,27
2016-12-31,3,26
2017-01-01,8,33
2017-01-02,14,31
2017-01-03,7,38
2017-01-04,4,36
2017-01-05,12,33
2017-01-06,5,42
2017-01-07,5,40
2017-01-08,12,53
2017-01-09,10,41
2017-01-10,10,44
2017-01-11,6,50
2017-01-12,12,39
2017-01-13,7,51
2017-01-14,4,47
2017-01-15,11,48
2017-01-16,7,45
2017-01-17,9,47
2017-01-18,10,45
2017-01-19,7,60
2017-01-20,3,49
2017-01-21,6,54
2017-01-22,7,58
2017-01-23,4,55
2017-01-24,7,55
2017-01-25,4,55
2017-01-26,9,58
2017-01-27,4,50
2017-01-28,2,54
2017-01-29,9,51
2017-01-30,10,53
2017-01-31,5,59
2017-02-01,10,54
2017-02-02,5,52
2017-02-03,8,63
2017-02-04,7,55
2017-02-05,5,60
2017-02-06,6,57
2017-02-07,2,64
2017-02-08,7,57
2017-02-09,8,57
2017-02-10,2,58
2017-02-11,7,55
2017-02-12,4,66
2017-02-13,3,58
2017-02-14,8,64
2017-02-15,6,56
2017-02-16,3,60
2017-02-17,5,54
2017-02-18,3,62
2017-02-19,6,61
2017-02-20,4,58
2017-02-21,2,61
2017-02-22,6,58
2017-02-23,7,67
2017-02-24,4,56
2017-02-25,7,59
2017-02-26,9,62
2017-02-27,5,60
2017-02-28,3,69
2017-03-01,7,63
2017-03-02,5,65
2017-03-03,2,58
2017-03-04,9,73
2017-03-05,4,57
2017-03-06,3,70
2017-03-07,5,72
2017-03-08,5,59
2017-03-09,2,70
2017-03-10,2,65
2017-03-11,2,60
2017-03-12,2,53
2017-03-13,2,65
2017-03-14,2,56
2017-03-15,6,68
2017-03-16,6,62
2017-03-17,9,78
2017-03-18,15,59
2017-03-19,13,69
2017-03-20,9,78
2017-03-21,9,70
2017-03-22,3,70
2017-03-23,3,76
2017-03-24,4,57
2017-03-25,4,80
2017-03-26,4,51
2017-03-27,1,72
2017-03-28,1,47
2017-03-29,5,71
2017-03-30,0,53
2017-03-31,2,66
2017-04-01,4,61
2017-04-02,6,71
2017-04-03,5,58
2017-04-04,2,65
2017-04-05,1,60
2017-04-06,5,67
2017-04-07,4,61
2017-04-08,2,65
2017-04-09,1,54
2017-04-10,0,67
2017-04-11,1,59
2017-04-12,7,69
2017-04-13,3,46
2017-04-14,2,69
2017-04-15,1,50
2017-04-16,2,62
2017-04-17,5,59
2017-04-18,2,61
2017-04-19,3,68
2017-04-20,2,61
2017-04-21,3,72
2017-04-22,0,0
2017-04-23,2,94
2017-04-24,3,48
2017-04-25,2,82
2017-04-26,3,47
2017-04-27,1,68
2017-04-28,2,52
2017-04-29,2,63
2017-04-30,4,55
2017-05-01,1,55
2017-05-02,6,53
2017-05-03,1,57
2017-05-04,1,54
2017-05-05,6,65
2017-05-06,2,41
2017-05-07,1,61
2017-05-08,1,46
2017-05-09,3,64
2017-05-10,4,50
2017-05-11,0,55
2017-05-12,5,50
2017-05-13,2,56
2017-05-14,0,45
2017-05-15,4,65
2017-05-16,4,54
2017-05-17,1,63
2017-05-18,2,47
2017-05-19,1,58
2017-05-20,4,46
2017-05-21,0,48
2017-05-22,0,43
2017-05-23,0,52
2017-05-24,2,47
2017-05-25,0,56
2017-05-26,2,50
2017-05-27,3,49
2017-05-28,2,45
2017-05-29,0,57
2017-05-30,0,49
2017-05-31,1,50
2017-06-01,1,53
2017-06-02,5,54
2017-06-03,5,49
2017-06-04,6,63
2017-06-05,2,47
2017-06-06,4,56
2017-06-07,5,57
2017-06-08,1,47
2017-06-09,0,51
2017-06-10,3,51
2017-06-11,3,49
2017-06-12,4,47
2017-06-13,2,44
2017-06-14,3,58
2017-06-15,4,40
2017-06-16,1,49
2017-06-17,0,49
2017-06-18,2,47
2017-06-19,3,51
2017-06-20,0,50
2017-06-21,3,41
2017-06-22,3,47
2017-06-23,6,45
2017-06-24,4,49
2017-06-25,6,50
2017-06-26,7,53
2017-06-27,4,39
2017-06-28,3,58
2017-06-29,0,40
2017-06-30,1,49
2017-07-01,2,44
2017-07-02,4,42
2017-07-03,1,38
2017-07-04,1,48
2017-07-05,4,41
2017-07-06,3,48
2017-07-07,2,46
2017-07-08,1,38
2017-07-09,0,51
2017-07-10,3,41
2017-07-11,5,48
2017-07-12,5,40
2017-07-13,1,62
2017-07-14,3,38
2017-07-15,4,61
2017-07-16,0,44
2017-07-17,0,50
2017-07-18,2,43
2017-07-19,2,44
2017-07-20,2,38
2017-07-21,1,64
2017-07-22,3,42
2017-07-23,2,56
2017-07-24,3,47
2017-07-25,2,53
2017-07-26,1,38
2017-07-27,3,64
2017-07-28,3,46
2017-07-29,4,58
2017-07-30,2,45
2017-07-31,3,57
2017-08-01,4,50
2017-08-02,4,55
2017-08-03,5,50
2017-08-04,2,49
2017-08-05,2,54
2017-08-06,2,50
2017-08-07,3,52
2017-08-08,2,50
2017-08-09,5,53
2017-08-10,0,54
2017-08-11,2,53
2017-08-12,2,54
2017-08-13,2,53
2017-08-14,3,47
2017-08-15,5,62
2017-08-16,1,49
2017-08-17,1,62
2017-08-18,1,57
2017-08-19,1,43
2017-08-20,0,53
2017-08-21,1,53
2017-08-22,0,51
2017-08-23,0,37
2017-08-24,1,44
2017-08-25,6,40
2017-08-26,5,41
2017-08-27,5,53
2017-08-28,1,41
2017-08-29,2,49
2017-08-30,2,38
2017-08-31,2,47
2017-09-01,1,37
2017-09-02,3,37
2017-09-03,2,42
2017-09-04,0,42
2017-09-05,1,44
2017-09-06,1,33
2017-09-07,0,40
2017-09-08,0,48
2017-09-09,0,42
2017-09-10,1,43
2017-09-11,0,41
2017-09-12,2,44
2017-09-13,2,38
2017-09-14,1,45
2017-09-15,2,47
2017-09-16,4,37
2017-09-17,2,36
2017-09-18,2,38
2017-09-19,5,37
2017-09-20,2,42
2017-09-21,1,42
2017-09-22,3,46
2017-09-23,1,47
2017-09-24,2,45
2017-09-25,2,38
2017-09-26,3,38
2017-09-27,0,36
2017-09-28,2,44
2017-09-29,2,32
2017-09-30,3,39
2017-10-01,3,33
2017-10-02,1,36
2017-10-03,2,40
2017-10-04,2,45
2017-10-05,0,43
2017-10-06,1,35
2017-10-07,3,42
2017-10-08,5,41
2017-10-09,0,38
2017-10-10,2,36
2017-10-11,1,41
2017-10-12,3,38
2017-10-13,2,39
2017-10-14,2,42
2017-10-15,1,37
2017-10-16,2,34
2017-10-17,1,39
2017-10-18,0,42
2017-10-19,0,37
2017-10-20,0,37
2017-10-21,1,37
2017-10-22,1,25
2017-10-23,2,38
2017-10-24,1,25
2017-10-25,0,35
2017-10-26,0,41
2017-10-27,0,37
2017-10-28,0,39
2017-10-29,2,30
2017-10-30,1,38
2017-10-31,2,41
2017-11-01,2,42
2017-11-02,3,40
2017-11-03,2,40
2017-11-04,4,38
2017-11-05,2,38
2017-11-06,0,28
2017-11-07,3,38
2017-11-08,3,32
2017-11-09,1,40
2017-11-10,3,34
2017-11-11,0,36
2017-11-12,2,40
2017-11-13,2,42
2017-11-14,0,36
2017-11-15,3,44
2017-11-16,2,39
2017-11-17,1,31
2017-11-18,2,34
2017-11-19,0,34
2017-11-20,4,37
2017-11-21,0,27
2017-11-22,2,37
2017-11-23,1,30
2017-11-24,0,30
2017-11-25,2,31
2017-11-26,1,28
2017-11-27,4,32
2017-11-28,0,27
2017-11-29,1,30
2017-11-30,2,35
2017-12-01,0,33
2017-12-02,0,31
2017-12-03,0,30
2017-12-04,3,30
2017-12-05,3,36
2017-12-06,0,26
2017-12-07,3,33
2017-12-08,0,24
2017-12-09,3,32
2017-12-10,5,29
2017-12-11,6,32
2017-12-12,2,31
2017-12-13,2,27
2017-12-14,0,27
2017-12-15,4,32
2017-12-16,3,29
2017-12-17,1,34
2017-12-18,1,22
2017-12-19,1,31
2017-12-20,4,24
2017-12-21,4,33
2017-12-22,5,28
2017-12-23,2,30
2017-12-24,1,25
2017-12-25,0,25
2017-12-26,2,26
2017-12-27,2,27
2017-12-28,1,26
2017-12-29,3,25
2017-12-30,2,29
2017-12-31,1,27
2018-01-01,1,29
2018-01-02,0,25
2018-01-03,5,28
2018-01-04,1,26
2018-01-05,1,22
2018-01-06,4,32
2018-01-07,3,23
2018-01-08,0,27
2018-01-09,0,26
2018-01-10,2,34
2018-01-11,1,26
2018-01-12,2,29
2018-01-13,6,33
2018-01-14,2,30
2018-01-15,0,28
2018-01-16,1,30
2018-01-17,1,28
2018-01-18,3,33
2018-01-19,0,30
2018-01-20,1,29
2018-01-21,3,34
2018-01-22,0,27
2018-01-23,1,33
2018-01-24,2,33
2018-01-25,1,32
2018-01-26,0,24
2018-01-27,1,32
2018-01-28,2,29
2018-01-29,1,32
2018-01-30,0,29
2018-01-31,0,33
2018-02-01,2,34
2018-02-02,1,30
2018-02-03,1,31
2018-02-04,2,30
2018-02-05,4,26
2018-02-06,0,32
2018-02-07,2,31
2018-02-08,2,26
2018-02-09,2,31
2018-02-10,3,22
2018-02-11,2,31
2018-02-12,2,28
2018-02-13,4,32
2018-02-14,1,24
2018-02-15,3,33
2018-02-16,3,31
2018-02-17,2,29
2018-02-18,4,30
2018-02-19,1,26
2018-02-20,2,34
2018-02-21,1,30
2018-02-22,0,33
2018-02-23,2,25
2018-02-24,2,32
2018-02-25,2,17
2018-02-26,0,22
2018-02-27,2,24
2018-02-28,3,28
2018-03-01,1,18
2018-03-02,2,24
2018-03-03,0,22
2018-03-04,3,21
2018-03-05,3,23
2018-03-06,2,19
2018-03-07,0,19
2018-03-08,0,18
2018-03-09,2,24
2018-03-10,0,26
2018-03-11,3,21
2018-03-12,2,14
2018-03-13,1,23
2018-03-14,0,27
2018-03-15,1,21
2018-03-16,0,27
2018-03-17,1,19
2018-03-18,2,23
2018-03-19,0,21
2018-03-20,1,22
2018-03-21,2,22
2018-03-22,2,26
2018-03-23,0,20
2018-03-24,0,18
2018-03-25,0,18
2018-03-26,2,21
2018-03-27,3,19
2018-03-28,4,25
2018-03-29,0,22
2018-03-30,2,16
2018-03-31,3,21
2018-04-01,1,18
2018-04-02,0,23
2018-04-03,0,27
2018-04-04,0,23
2018-04-05,3,16
2018-04-06,0,20
2018-04-07,2,17
2018-04-08,1,22
2018-04-09,1,21
2018-04-10,1,16
2018-04-11,0,24
2018-04-12,1,24
2018-04-13,3,17
2018-04-14,2,18
2018-04-15,3,20
2018-04-16,1,17
2018-04-17,0,16
2018-04-18,1,20
2018-04-19,0,15
2018-04-20,3,25
2018-04-21,2,20
2018-04-22,4,19
2018-04-23,2,15
2018-04-24,4,17
2018-04-25,2,20
2018-04-26,4,21
2018-04-27,3,20
2018-04-28,1,15
2018-04-29,0,18
2018-04-30,4,19
2018-05-01,2,17
2018-05-02,2,17
2018-05-03,2,22
2018-05-04,0,18
2018-05-05,1,19
2018-05-06,6,25
2018-05-07,4,21
2018-05-08,0,19
2018-05-09,2,28
2018-05-10,0,21
2018-05-11,2,26
2018-05-12,2,24
2018-05-13,0,19
2018-05-14,1,18
2018-05-15,0,23
2018-05-16,3,25
2018-05-17,1,26
2018-05-18,1,17
2018-05-19,1,18
2018-05-20,5,24
2018-05-21,9,24
2018-05-22,6,35
2018-05-23,0,24
2018-05-24,0,22
2018-05-25,2,23
2018-05-26,2,22
2018-05-27,2,21
2018-05-28,1,28
2018-05-29,6,22
2018-05-30,8,27
2018-05-31,13,25
2018-06-01,17,19
2018-06-02,7,24
2018-06-03,14,18
2018-06-04,10,21
2018-06-05,3,20
2018-06-06,10,21
2018-06-07,7,23
2018-06-08,8,21
2018-06-09,6,25
2018-06-10,7,18
2018-06-11,9,18
2018-06-12,2,22
2018-06-13,9,16
2018-06-14,6,27
2018-06-15,6,19
2018-06-16,4,23
2018-06-17,6,24
2018-06-18,8,19
2018-06-19,7,22
2018-06-20,5,23
2018-06-21,6,28
2018-06-22,6,20
2018-06-23,4,20
2018-06-24,8,20
2018-06-25,6,20
2018-06-26,4,26
2018-06-27,6,23
2018-06-28,6,20
2018-06-29,7,26
2018-06-30,6,26
2018-07-01,9,21
2018-07-02,12,19
2018-07-03,16,31
2018-07-04,8,29
2018-07-05,5,27
2018-07-06,3,23
2018-07-07,3,17
2018-07-08,8,28
2018-07-09,9,30
2018-07-10,6,31
2018-07-11,4,24
2018-07-12,5,31
2018-07-13,3,31
2018-07-14,6,29
2018-07-15,2,33
2018-07-16,3,28
2018-07-17,6,28
2018-07-18,3,26
2018-07-19,0,37
2018-07-20,5,31
2018-07-21,5,29
2018-07-22,7,27
2018-07-23,5,25
2018-07-24,3,28
2018-07-25,7,32
2018-07-26,6,25
2018-07-27,3,36
2018-07-28,4,28
2018-07-29,5,25
2018-07-30,2,28
2018-07-31,6,28
2018-08-01,4,27
2018-08-02,6,22
2018-08-03,3,28
2018-08-04,5,26
2018-08-05,5,28
2018-08-06,4,29
2018-08-07,5,29
2018-08-08,8,31
2018-08-09,9,34
2018-08-10,8,26
2018-08-11,4,26
2018-08-12,5,25
2018-08-13,8,36
2018-08-14,3,28
2018-08-15,5,27
2018-08-16,2,28
2018-08-17,5,28
2018-08-18,6,30
2018-08-19,8,27
2018-08-20,5,34
2018-08-21,7,26
2018-08-22,4,20
2018-08-23,3,25
2018-08-24,3,22
2018-08-25,6,23
2018-08-26,7,19
2018-08-27,8,24
2018-08-28,5,29
2018-08-29,3,18
2018-08-30,2,29
2018-08-31,3,21
2018-09-01,5,28
2018-09-02,2,25
2018-09-03,1,28
2018-09-04,5,28
2018-09-05,4,27
2018-09-06,8,30
2018-09-07,2,31
2018-09-08,3,20
2018-09-09,11,31
2018-09-10,6,27
2018-09-11,3,22
2018-09-12,4,32
2018-09-13,3,31
2018-09-14,8,26
2018-09-15,8,29
2018-09-16,7,31
2018-09-17,2,26
2018-09-18,5,29
2018-09-19,3,30
2018-09-20,8,29
2018-09-21,3,31
2018-09-22,3,22
2018-09-23,4,29
2018-09-24,5,33
2018-09-25,3,35
2018-09-26,6,31
2018-09-27,0,26
2018-09-28,1,29
2018-09-29,3,20
2018-09-30,4,28
2018-10-01,4,29
2018-10-02,6,27
2018-10-03,1,29
2018-10-04,2,28
2018-10-05,7,29
2018-10-06,4,27
2018-10-07,3,27
2018-10-08,1,32
2018-10-09,4,29
2018-10-10,0,29
2018-10-11,3,36
2018-10-12,2,23
2018-10-13,1,28
2018-10-14,2,33
2018-10-15,0,28
2018-10-16,1,30
2018-10-17,0,31
2018-10-18,0,27
2018-10-19,1,25
2018-10-20,3,27
2018-10-21,2,21
2018-10-22,4,25
2018-10-23,1,21
2018-10-24,3,25
2018-10-25,3,34
2018-10-26,1,24
2018-10-27,0,18
2018-10-28,1,21
2018-10-29,0,23
2018-10-30,2,19
2018-10-31,2,22
2018-11-01,2,21
2018-11-02,3,24
2018-11-03,1,19
2018-11-04,0,19
2018-11-05,2,24
2018-11-06,1,23
2018-11-07,1,27
2018-11-08,2,21
2018-11-09,0,27
2018-11-10,0,14
2018-11-11,1,23
2018-11-12,1,19
2018-11-13,2,20
2018-11-14,3,19
2018-11-15,2,22
2018-11-16,1,18
2018-11-17,7,18
2018-11-18,1,14
2018-11-19,3,21
2018-11-20,3,17
2018-11-21,3,22
2018-11-22,6,21
2018-11-23,1,21
2018-11-24,4,20
2018-11-25,1,17
2018-11-26,5,24
2018-11-27,6,16
2018-11-28,5,27
2018-11-29,4,18
2018-11-30,4,20
2018-12-01,2,21
2018-12-02,0,12
2018-12-03,0,18
2018-12-04,1,23
2018-12-05,0,19
2018-12-06,1,16
2018-12-07,6,16
2018-12-08,2,23
2018-12-09,2,17
2018-12-10,3,26
2018-12-11,4,16
2018-12-12,5,20
2018-12-13,5,28
2018-12-14,6,18
2018-12-15,6,16
2018-12-16,3,22
2018-12-17,6,26
2018-12-18,4,25
2018-12-19,7,15
2018-12-20,1,17
2018-12-21,1,24
2018-12-22,3,13
2018-12-23,6,21
2018-12-24,4,17
2018-12-25,3,18
2018-12-26,2,18
2018-12-27,5,18
2018-12-28,3,19
2018-12-29,6,15
2018-12-30,5,16
2018-12-31,9,22
2019-01-01,8,16
2019-01-02,5,26
2019-01-03,2,27
2019-01-04,1,27
2019-01-05,1,23
2019-01-06,1,15
2019-01-07,2,21
2019-01-08,4,16
2019-01-09,3,17
2019-01-10,4,20
2019-01-11,3,20
2019-01-12,4,19
2019-01-13,2,19
2019-01-14,3,24
2019-01-15,0,13
2019-01-16,0,18
2019-01-17,0,15
2019-01-18,4,15
2019-01-19,1,17
2019-01-20,1,19
2019-01-21,6,22
2019-01-22,4,16
2019-01-23,4,20
2019-01-24,6,21
2019-01-25,5,26
2019-01-26,4,19
2019-01-27,2,20
2019-01-28,0,21
2019-01-29,2,22
2019-01-30,4,19
2019-01-31,2,18
2019-02-01,2,19
2019-02-02,6,21
2019-02-03,4,18
2019-02-04,2,17
2019-02-05,1,17
2019-02-06,3,17
2019-02-07,2,20
2019-02-08,4,23
2019-02-09,3,14
2019-02-10,2,20
2019-02-11,3,20
2019-02-12,1,24
2019-02-13,2,16
2019-02-14,4,20
2019-02-15,5,10
2019-02-16,3,19
2019-02-17,2,20
2019-02-18,1,14
2019-02-19,5,20
2019-02-20,3,20
2019-02-21,3,18
2019-02-22,4,18
2019-02-23,6,23
2019-02-24,12,17
2019-02-25,2,21
2019-02-26,1,18
2019-02-27,1,18
2019-02-28,3,12
2019-03-01,2,18
2019-03-02,1,21
2019-03-03,4,15
2019-03-04,1,21
2019-03-05,1,20
2019-03-06,3,17
2019-03-07,3,18
2019-03-08,2,21
2019-03-09,1,13
2019-03-10,2,20
2019-03-11,1,18
2019-03-12,1,13
2019-03-13,2,19
2019-03-14,2,19
2019-03-15,3,9
2019-03-16,1,17
2019-03-17,0,13
2019-03-18,1,19
2019-03-19,1,14
2019-03-20,3,18
2019-03-21,2,18
2019-03-22,5,17
2019-03-23,3,20
2019-03-24,2,12
2019-03-25,3,17
2019-03-26,3,19
2019-03-27,0,17
2019-03-28,0,14
2019-03-29,1,19
2019-03-30,2,13
2019-03-31,1,12
2019-04-01,2,10
2019-04-02,5,16
2019-04-03,0,13
2019-04-04,1,20
2019-04-05,1,12
2019-04-06,1,14
2019-04-07,3,11
2019-04-08,4,15
2019-04-09,1,19
2019-04-10,2,17
2019-04-11,5,15
2019-04-12,2,14
2019-04-13,2,17
2019-04-14,3,19
2019-04-15,3,22
2019-04-16,3,22
2019-04-17,4,20
2019-04-18,1,15
2019-04-19,3,15
2019-04-20,1,21
2019-04-21,4,12
2019-04-22,3,14
2019-04-23,6,12
2019-04-24,3,23
2019-04-25,3,18
2019-04-26,4,21
2019-04-27,2,19
2019-04-28,3,14
2019-04-29,4,14
2019-04-30,2,17
2019-05-01,2,15
2019-05-02,1,12
2019-05-03,2,20
2019-05-04,1,12
2019-05-05,2,16
2019-05-06,1,20
2019-05-07,2,13
2019-05-08,4,15
2019-05-09,3,20
2019-05-10,4,15
2019-05-11,2,18
2019-05-12,0,20
2019-05-13,0,13
2019-05-14,0,19
2019-05-15,1,20
2019-05-16,1,15
2019-05-17,1,18
2019-05-18,2,14
2019-05-19,1,11
2019-05-20,0,16
2019-05-21,1,14
2019-05-22,0,11
2019-05-23,4,11
2019-05-24,2,16
2019-05-25,2,15
2019-05-26,2,9
2019-05-27,2,10
2019-05-28,1,12
2019-05-29,1,11
2019-05-30,0,8
2019-05-31,1,10
2019-06-01,1,14
2019-06-02,2,10
2019-06-03,1,10
2019-06-04,2,13
2019-06-05,2,11
2019-06-06,3,12
2019-06-07,1,12
2019-06-08,0,11
2019-06-09,3,12
2019-06-10,2,11
2019-06-11,2,8
2019-06-12,5,13
2019-06-13,5,9
2019-06-14,2,11
2019-06-15,1,9
2019-06-16,2,9
2019-06-17,2,3
2019-06-18,2,5
2019-06-19,5,10
2019-06-20,1,11
2019-06-21,2,13
2019-06-22,0,8
2019-06-23,0,8
2019-06-24,3,9
2019-06-25,1,8
2019-06-26,1,13
2019-06-27,3,8
2019-06-28,3,9
2019-06-29,0,8
2019-06-30,2,7
2019-07-01,4,7
2019-07-02,3,6
2019-07-03,3,6
2019-07-04,4,7
2019-07-05,4,3
2019-07-06,2,7
2019-07-07,0,4
2019-07-08,0,7
2019-07-09,1,5
2019-07-10,1,6
2019-07-11,1,6
2019-07-12,1,6
2019-07-13,1,7
2019-07-14,5,8
2019-07-15,0,5
2019-07-16,2,6
2019-07-17,1,10
2019-07-18,1,7
2019-07-19,2,12
2019-07-20,3,3
2019-07-21,0,8
2019-07-22,2,8
2019-07-23,3,6
2019-07-24,1,5
2019-07-25,3,3
2019-07-26,4,3
2019-07-27,1,10
2019-07-28,3,6
2019-07-29,1,4
2019-07-30,0,8
2019-07-31,1,4
2019-08-01,4,8
2019-08-02,3,10
2019-08-03,2,7
2019-08-04,3,11
2019-08-05,3,7
2019-08-06,2,7
2019-08-07,1,7
2019-08-08,3,4
2019-08-09,1,9
2019-08-10,3,15
2019-08-11,0,7
2019-08-12,2,9
2019-08-13,2,7
2019-08-14,2,5
2019-08-15,0,9
2019-08-16,2,10
2019-08-17,0,8
2019-08-18,1,9
2019-08-19,1,7
2019-08-20,0,8
2019-08-21,0,2
2019-08-22,0,7
2019-08-23,0,7
2019-08-24,1,8
2019-08-25,2,9
2019-08-26,2,6
2019-08-27,1,4
2019-08-28,2,6
2019-08-29,3,6
2019-08-30,0,15
2019-08-31,1,8
2019-09-01,0,8
2019-09-02,2,6
2019-09-03,1,10
2019-09-04,1,11
2019-09-05,1,9
2019-09-06,5,11
2019-09-07,4,9
2019-09-08,5,10
2019-09-09,3,9
2019-09-10,1,9
2019-09-11,4,7
2019-09-12,3,5
2019-09-13,5,11
2019-09-14,2,12
2019-09-15,1,9
2019-09-16,0,6
2019-09-17,0,13
2019-09-18,2,10
2019-09-19,1,8
2019-09-20,1,14
2019-09-21,3,9
2019-09-22,6,11
2019-09-23,4,7
2019-09-24,0,13
2019-09-25,1,8
2019-09-26,0,9
2019-09-27,1,13
2019-09-28,0,13
2019-09-29,1,11
2019-09-30,0,9
2019-10-01,1,7
2019-10-02,1,16
2019-10-03,0,12
2019-10-04,0,13
2019-10-05,5,14
2019-10-06,0,4
2019-10-07,2,14
2019-10-08,2,8
2019-10-09,1,8
2019-10-10,1,12
2019-10-11,3,7
2019-10-12,0,15
2019-10-13,0,6
2019-10-14,1,10
2019-10-15,1,8
2019-10-16,2,12
2019-10-17,0,9
2019-10-18,1,8
2019-10-19,1,3
2019-10-20,2,12
2019-10-21,3,10
2019-10-22,5,7
2019-10-23,2,9
2019-10-24,5,15
2019-10-25,5,8
2019-10-26,5,11
2019-10-27,4,15
2019-10-28,2,12
2019-10-29,2,16
2019-10-30,2,11
2019-10-31,5,12
2019-11-01,1,14
2019-11-02,5,18
2019-11-03,3,6
2019-11-04,2,11
2019-11-05,0,9
2019-11-06,3,12
2019-11-07,5,11
2019-11-08,1,14
2019-11-09,1,9
2019-11-10,0,8
2019-11-11,1,9
2019-11-12,1,12
2019-11-13,0,8
2019-11-14,1,13
2019-11-15,5,9
2019-11-16,3,9
2019-11-17,2,5
2019-11-18,3,8
2019-11-19,2,10
2019-11-20,2,10
2019-11-21,0,11
2019-11-22,0,12
2019-11-23,1,12
2019-11-24,3,11
2019-11-25,4,15
2019-11-26,3,12
2019-11-27,2,9
2019-11-28,2,4
2019-11-29,4,9
2019-11-30,4,9
2019-12-01,3,7
2019-12-02,3,6
2019-12-03,6,11
2019-12-04,5,10
2019-12-05,8,10
2019-12-06,4,9
2019-12-07,3,9
2019-12-08,4,14
2019-12-09,2,9
2019-12-10,0,8
2019-12-11,0,15
2019-12-12,0,10
2019-12-13,1,11
2019-12-14,2,14
2019-12-15,1,14
2019-12-16,4,9
2019-12-17,2,14
2019-12-18,5,15
2019-12-19,1,13
2019-12-20,2,15
2019-12-21,1,13
2019-12-22,2,12
2019-12-23,1,9
2019-12-24,4,13
2019-12-25,0,10
2019-12-26,2,13
2019-12-27,2,15
2019-12-28,4,15
2019-12-29,2,12
2019-12-30,0,15
2019-12-31,2,8
2020-01-01,2,11
2020-01-02,3,17
2020-01-03,2,10
2020-01-04,4,12
2020-01-05,4,10
2020-01-06,3,17
2020-01-07,1,15
2020-01-08,4,13
2020-01-09,3,16
2020-01-10,3,14
2020-01-11,1,12
2020-01-12,2,18
2020-01-13,2,10
2020-01-14,0,12
2020-01-15,2,12
2020-01-16,4,10
2020-01-17,6,11
2020-01-18,7,15
2020-01-19,6,18
2020-01-20,3,11
2020-01-21,5,12
2020-01-22,3,12
2020-01-23,3,14
2020-01-24,4,9
2020-01-25,3,13
2020-01-26,1,10
2020-01-27,3,12
2020-01-28,6,13
2020-01-29,4,10
2020-01-30,5,15
2020-01-31,5,9
2020-02-01,3,8
2020-02-02,1,13
2020-02-03,3,9
2020-02-04,2,11
2020-02-05,1,6
2020-02-06,1,9
2020-02-07,0,11
2020-02-08,2,4
2020-02-09,1,6
2020-02-10,0,11
2020-02-11,2,8
2020-02-12,1,9
2020-02-13,1,13
2020-02-14,5,12
2020-02-15,2,11
2020-02-16,3,13
2020-02-17,1,17
2020-02-18,1,13
2020-02-19,3,18
2020-02-20,2,19
2020-02-21,4,17
2020-02-22,2,15
2020-02-23,2,17
2020-02-24,1,13
2020-02-25,0,18
2020-02-26,0,22
2020-02-27,1,15
2020-02-28,0,13
2020-02-29,4,14
2020-03-01,0,15
2020-03-02,0,21
2020-03-03,1,11
2020-03-04,1,12
2020-03-05,2,9
2020-03-06,3,13
2020-03-07,0,14
2020-03-08,3,12
2020-03-09,2,15
2020-03-10,2,13
2020-03-11,0,13
2020-03-12,1,13
2020-03-13,0,12
2020-03-14,2,15
2020-03-15,3,17
2020-03-16,3,13
2020-03-17,1,15
2020-03-18,2,14
2020-03-19,1,16
2020-03-20,2,15
2020-03-21,2,17
2020-03-22,1,15
2020-03-23,0,20
2020-03-24,2,15
2020-03-25,3,19
2020-03-26,2,14
2020-03-27,1,10
2020-03-28,4,11
2020-03-29,2,20
2020-03-30,3,12
2020-03-31,5,15
2020-04-01,1,16
2020-04-02,2,18
2020-04-03,0,18
2020-04-04,0,14
2020-04-05,5,15
2020-04-06,6,17
2020-04-07,4,12
2020-04-08,2,15
2020-04-09,4,14
2020-04-10,11,19
2020-04-11,1,9
2020-04-12,3,21
2020-04-13,3,15
2020-04-14,3,21
2020-04-15,6,16
2020-04-16,4,22
2020-04-17,5,12
2020-04-18,1,17
2020-04-19,1,18
2020-04-20,1,18
2020-04-21,1,18
2020-04-22,1,14
2020-04-23,2,16
2020-04-24,1,17
2020-04-25,0,16
2020-04-26,1,13
2020-04-27,0,11
2020-04-28,0,15
2020-04-29,0,18
2020-04-30,3,17
2020-05-01,0,20
2020-05-02,3,18
2020-05-03,1,13
2020-05-04,5,15
2020-05-05,6,16
2020-05-06,2,18
2020-05-07,5,17
2020-05-08,4,19
2020-05-09,7,17
2020-05-10,4,20
2020-05-11,4,17
2020-05-12,2,17
2020-05-13,1,17
2020-05-14,2,22
2020-05-15,3,18
2020-05-16,2,15
2020-05-17,2,13
2020-05-18,1,14
2020-05-19,6,14
2020-05-20,1,15
2020-05-21,3,22
2020-05-22,7,13
2020-05-23,5,16
2020-05-24,10,17
2020-05-25,11,17
2020-05-26,10,17
2020-05-27,12,19
2020-05-28,10,20
2020-05-29,13,24
2020-05-30,11,14
2020-05-31,10,27
2020-06-01,11,22
2020-06-02,11,21
2020-06-03,18,18
2020-06-04,9,24
2020-06-05,12,18
2020-06-06,14,23
2020-06-07,7,20
2020-06-08,16,27
2020-06-09,11,29
2020-06-10,19,33
2020-06-11,11,28
2020-06-12,7,23
2020-06-13,21,31
2020-06-14,12,24
2020-06-15,12,27
2020-06-16,16,28
2020-06-17,8,32
2020-06-18,5,24
2020-06-19,11,29
2020-06-20,9,27
2020-06-21,9,29
2020-06-22,12,26
2020-06-23,18,36
2020-06-24,14,30
2020-06-25,8,31
2020-06-26,7,31
2020-06-27,9,26
2020-06-28,11,37
2020-06-29,16,33
2020-06-30,17,35
2020-07-01,13,44
2020-07-02,13,39
2020-07-03,13,40
2020-07-04,16,35
2020-07-05,12,38
2020-07-06,15,44
2020-07-07,10,37
2020-07-08,17,38
2020-07-09,13,52
2020-07-10,5,31
2020-07-11,14,43
2020-07-12,13,41
2020-07-13,19,46
2020-07-14,13,40
2020-07-15,16,45
2020-07-16,18,43
2020-07-17,19,43
2020-07-18,16,45
2020-07-19,11,49
2020-07-20,9,43
2020-07-21,12,52
2020-07-22,14,47
2020-07-23,9,44
2020-07-24,15,47
2020-07-25,17,44
2020-07-26,12,45
2020-07-27,11,45
2020-07-28,12,53
2020-07-29,16,58
2020-07-30,12,39
2020-07-31,12,52
2020-08-01,6,43
2020-08-02,8,57
2020-08-03,11,47
2020-08-04,11,50
2020-08-05,11,49
2020-08-06,10,44
2020-08-07,9,38
2020-08-08,14,43
2020-08-09,17,48
2020-08-10,9,38
2020-08-11,8,43
2020-08-12,3,54
2020-08-13,2,36
2020-08-14,4,31
2020-08-15,1,43
2020-08-16,2,54
2020-08-17,2,44
2020-08-18,0,44
2020-08-19,2,44
2020-08-20,3,36
2020-08-21,1,39
2020-08-22,3,44
2020-08-23,4,42
2020-08-24,3,46
2020-08-25,2,43
2020-08-26,9,45
2020-08-27,9,45
2020-08-28,6,55
2020-08-29,5,47
2020-08-30,4,43
2020-08-31,5,49
2020-09-01,3,45
2020-09-02,5,52
2020-09-03,3,50
2020-09-04,4,55
2020-09-05,7,49
2020-09-06,3,52
2020-09-07,3,48
2020-09-08,4,56
2020-09-09,6,40
2020-09-10,1,51
2020-09-11,6,58
2020-09-12,1,44
2020-09-13,4,48
2020-09-14,5,49
2020-09-15,1,58
2020-09-16,4,60
2020-09-17,3,53
2020-09-18,4,56
2020-09-19,6,45
2020-09-20,2,53
2020-09-21,1,46
2020-09-22,0,57
2020-09-23,0,45
2020-09-24,0,58
2020-09-25,2,47
2020-09-26,1,55
2020-09-27,5,50
2020-09-28,5,50
2020-09-29,4,41
2020-09-30,3,60
2020-10-01,3,57
2020-10-02,2,55
2020-10-03,2,47
2020-10-04,2,50
2020-10-05,4,57
2020-10-06,4,56
2020-10-07,1,69
2020-10-08,3,56
2020-10-09,3,65
2020-10-10,1,44
2020-10-11,4,49
2020-10-12,4,56
2020-10-13,2,55
2020-10-14,1,53
2020-10-15,2,49
2020-10-16,1,58
2020-10-17,2,46
2020-10-18,4,50
2020-10-19,2,52
2020-10-20,4,57
2020-10-21,4,60
2020-10-22,6,57
2020-10-23,2,52
2020-10-24,3,48
2020-10-25,5,52
2020-10-26,4,53
2020-10-27,2,54
2020-10-28,3,53
2020-10-29,2,59
2020-10-30,5,62
2020-10-31,7,49
2020-11-01,3,58
2020-11-02,3,57
2020-11-03,2,48
2020-11-04,2,49
2020-11-05,3,44
2020-11-06,0,53
2020-11-07,0,38
2020-11-08,0,50
2020-11-09,1,49
2020-11-10,2,46
2020-11-11,3,46
2020-11-12,3,53
2020-11-13,2,51
2020-11-14,2,45
2020-11-15,3,39
2020-11-16,5,53
2020-11-17,4,52
2020-11-18,3,55
2020-11-19,2,50
2020-11-20,4,55
2020-11-21,1,45
2020-11-22,3,54
2020-11-23,2,56
2020-11-24,1,46
2020-11-25,0,50
2020-11-26,2,45
2020-11-27,6,54
2020-11-28,4,43
2020-11-29,1,55
2020-11-30,3,54
2020-12-01,4,61
2020-12-02,2,49
2020-12-03,3,49
2020-12-04,0,57
2020-12-05,1,43
2020-12-06,1,43
2020-12-07,5,48
2020-12-08,6,61
2020-12-09,2,54
2020-12-10,2,49
2020-12-11,0,43
2020-12-12,6,53
2020-12-13,4,51
2020-12-14,5,61
2020-12-15,1,56
2020-12-16,1,57
2020-12-17,1,63
2020-12-18,2,49
2020-12-19,3,48
2020-12-20,4,52
2020-12-21,0,53
2020-12-22,10,53
2020-12-23,1,53
2020-12-24,0,43
2020-12-25,0,44
2020-12-26,4,40
2020-12-27,3,49
2020-12-28,2,52
2020-12-29,1,51
2020-12-30,1,51
2020-12-31,2,38
2021-01-01,1,46
2021-01-02,2,47
2021-01-03,2,55
2021-01-04,0,49
2021-01-05,4,61
2021-01-06,2,55
2021-01-07,2,47
2021-01-08,2,46
2021-01-09,1,42
2021-01-10,3,53
2021-01-11,1,53
2021-01-12,3,54
2021-01-13,1,63
2021-01-14,3,50
2021-01-15,3,54
2021-01-16,1,43
2021-01-17,2,58
2021-01-18,3,50
2021-01-19,3,66
2021-01-20,2,63
2021-01-21,1,51
2021-01-22,2,60
2021-01-23,1,45
2021-01-24,1,54
2021-01-25,6,61
2021-01-26,2,64